Tacoma Narrows, WA

7:35 AM PDT on May 20, 2018 (GMT -0700)
Tacoma Narrows

Weather History for KTIW - September, 2013

Change the Weather History Date:

Thursday, September 5, 2013

  Actual Average Record
Temperature  
Mean Temperature 63 °F -  
Max Temperature 69 °F 69 °F 87 °F (2003)
Min Temperature 60 °F 52 °F 48 °F (2000)
Degree Days  
Heating Degree Days 2    
Growing Degree Days 13 (Base 50)    
Moisture  
Dew Point 59 °F    
Average Humidity 87    
Maximum Humidity 100    
Minimum Humidity 70    
Precipitation  
Precipitation 0.00 in - - ()
Sea Level Pressure  
Sea Level Pressure 30.01 in    
Wind  
Wind Speed 3 mph (NW)    
Max Wind Speed 13 mph    
Max Gust Speed -    
Visibility 6 miles    
Events Rain , Thunderstorm    
Averages and records for this station are not official NWS values.
T = Trace of Precipitation, MM = Missing Value Source: NWS Daily Summary

Daily Weather History Graph

Daily Weather History Graph

Search for Another Location

Airport or City:

Astronomy

Sep. 05, 2013 Rise Set
Actual Time 6:35 AM PDT 7:41 PM PDT
Civil Twilight 6:03 AM PDT 8:12 PM PDT
Nautical Twilight 5:25 AM PDT 8:50 PM PDT
Astronomical Twilight 4:45 AM PDT 9:30 PM PDT
Moon 6:57 AM PDT (9/5) 7:29 PM PDT (9/5)
Length of Visible Light 14h 09m
Length of Day
13h 06m
New Moon, 0% of the Moon is Illuminated
Sep 5
New Moon
Sep 12
First Quarter
Sep 19
Full
Sep 26
Last Quarter
Oct 4
New

Hourly Weather History & Observations

Time (PDT) Temp. Dew Point Humidity Pressure Visibility Wind Dir Wind Speed Gust Speed Precip Events Conditions
12:53 AM 61.0 °F 57.0 °F 87% 30.04 in 10.0 mi Calm Calm - N/A   Clear
1:53 AM 61.0 °F 57.0 °F 87% 30.03 in 10.0 mi NNE 4.6 mph - N/A   Clear
2:53 AM 61.0 °F 57.0 °F 87% 30.04 in 10.0 mi SW 3.5 mph - N/A   Clear
3:53 AM 61.0 °F 57.9 °F 90% 30.03 in 10.0 mi West 4.6 mph - N/A   Scattered Clouds
4:01 AM 62.6 °F 57.2 °F 82% 30.03 in 10.0 mi West 4.6 mph - N/A   Mostly Cloudy
4:53 AM 61.0 °F 57.9 °F 90% 30.04 in 7.0 mi Calm Calm - 0.00 in   Overcast
5:08 AM 60.8 °F 57.2 °F 88% 30.01 in 6.0 mi NW 8.1 mph - 0.00 in Rain Light Rain
5:25 AM 60.8 °F 59.0 °F 94% 30.01 in 6.0 mi Calm Calm - 0.00 in Rain Light Rain
5:53 AM 61.0 °F 57.9 °F 90% 30.03 in 4.0 mi Calm Calm - 0.00 in   Overcast
6:03 AM 60.8 °F 59.0 °F 94% 30.03 in 5.0 mi Calm Calm - 0.00 in Rain , Thunderstorm Light Rain
6:13 AM 60.8 °F 59.0 °F 94% 30.04 in 6.0 mi Variable 3.5 mph - 0.00 in Rain , Thunderstorm Light Rain
6:34 AM 60.8 °F 57.2 °F 88% 30.02 in 4.0 mi NNW 5.8 mph - 0.00 in Rain Light Rain
6:53 AM 61.0 °F 57.9 °F 90% 30.01 in 9.0 mi North 3.5 mph - 0.00 in Rain Light Rain
7:17 AM 60.8 °F 57.2 °F 88% 30.02 in 4.0 mi NNE 4.6 mph - 0.00 in Rain Light Rain
7:53 AM 61.0 °F 57.9 °F 90% 30.02 in 4.0 mi Calm Calm - 0.00 in Rain Light Rain
8:07 AM 60.8 °F 59.0 °F 94% 30.03 in 6.0 mi Calm Calm - 0.00 in Rain , Thunderstorm Light Rain
8:31 AM 60.8 °F 59.0 °F 94% 30.03 in 2.0 mi NNW 3.5 mph - 0.00 in Thunderstorm Overcast
8:51 AM 62.6 °F 59.0 °F 88% 30.03 in 2.5 mi Calm Calm - 0.00 in   Overcast
8:53 AM 62.1 °F 59.0 °F 90% 30.03 in 2.5 mi Calm Calm - 0.00 in   Overcast
9:03 AM 62.6 °F 59.0 °F 88% 30.04 in 2.5 mi Calm Calm - N/A Thunderstorm Overcast
9:27 AM 62.6 °F 59.0 °F 88% 30.04 in 2.5 mi Calm Calm - N/A   Overcast
9:53 AM 63.0 °F 59.0 °F 87% 30.03 in 2.5 mi West 3.5 mph - N/A   Overcast
10:00 AM 62.6 °F 59.0 °F 88% 30.03 in 2.0 mi Calm Calm - N/A   Overcast
10:03 AM 62.6 °F 59.0 °F 88% 30.03 in 2.0 mi Calm Calm - N/A   Overcast
10:10 AM 62.6 °F 59.0 °F 88% 30.03 in 1.0 mi Calm Calm - N/A   Overcast
10:49 AM 62.6 °F 59.0 °F 88% 30.04 in 1.0 mi North 3.5 mph - N/A   Overcast
10:53 AM 63.0 °F 59.0 °F 87% 30.04 in 1.0 mi North 3.5 mph - N/A   Overcast
10:59 AM 62.6 °F 59.0 °F 88% 30.04 in 1.0 mi NE 4.6 mph - N/A   Overcast
11:53 AM 62.1 °F 57.9 °F 86% 30.04 in 3.0 mi North 10.4 mph - N/A   Overcast
12:53 PM 64.0 °F 57.9 °F 80% 30.03 in 4.0 mi NNW 8.1 mph - N/A   Haze
12:55 PM 64.4 °F 57.2 °F 77% 30.03 in 4.0 mi NNW 6.9 mph - N/A   Haze
1:53 PM 66.9 °F 57.9 °F 73% 30.01 in 10.0 mi North 12.7 mph - N/A   Mostly Cloudy
2:53 PM 66.9 °F 57.0 °F 70% 29.99 in 10.0 mi NNE 5.8 mph - N/A   Overcast
3:41 PM 66.2 °F 57.2 °F 73% 29.99 in 10.0 mi NW 4.6 mph - N/A   Mostly Cloudy
3:53 PM 66.0 °F 57.0 °F 73% 29.99 in 10.0 mi Calm Calm - N/A   Overcast
4:45 PM 64.4 °F 57.2 °F 77% 29.99 in 10.0 mi Calm Calm - N/A Thunderstorm Overcast
4:53 PM 64.9 °F 57.9 °F 78% 29.99 in 10.0 mi Calm Calm - N/A Thunderstorm Thunderstorm
5:35 PM 64.4 °F 59.0 °F 83% 29.97 in 10.0 mi Calm Calm - N/A   Mostly Cloudy
5:53 PM 64.0 °F 60.1 °F 87% 29.96 in 10.0 mi NNW 4.6 mph - 0.00 in Rain Light Rain
6:57 PM - - N/A% 29.97 in 10.0 mi NNW 5.8 mph - N/A   Mostly Cloudy
7:53 PM - - N/A% 29.97 in 10.0 mi NNW 5.8 mph - N/A   Overcast
8:53 PM 62.1 °F 60.1 °F 93% 29.94 in 10.0 mi South 5.8 mph - N/A   Overcast
9:22 PM 62.6 °F 59.0 °F 88% 29.97 in 10.0 mi South 5.8 mph - N/A   Overcast
9:47 PM 62.6 °F 60.8 °F 94% 29.98 in 10.0 mi South 3.5 mph - 0.00 in Rain , Thunderstorm Light Rain
9:53 PM 63.0 °F 60.1 °F 90% 29.98 in 9.0 mi SSW 5.8 mph - 0.00 in Rain , Thunderstorm Light Rain
10:07 PM 62.6 °F 60.8 °F 94% 29.98 in 8.0 mi South 5.8 mph - 0.00 in Rain , Thunderstorm Light Rain
10:53 PM 62.1 °F 60.1 °F 93% 29.97 in 5.0 mi SSW 9.2 mph - 0.00 in Rain , Thunderstorm Light Thunderstorms and Rain
11:19 PM 62.6 °F 60.8 °F 94% 29.98 in 7.0 mi South 6.9 mph - 0.00 in Rain Light Rain
11:29 PM 60.8 °F 60.8 °F 100% 29.98 in 2.5 mi Calm Calm - 0.00 in Rain Light Rain
11:45 PM 62.6 °F 60.8 °F 94% 29.99 in 5.0 mi Variable 3.5 mph - N/A Rain Rain
11:53 PM 62.1 °F 60.1 °F 93% 29.99 in 4.0 mi Variable 4.6 mph - N/A Rain Rain